Tracking 28794 objects as of 19-Apr-2024
HD Live streaming from Space Station
objects crossing your sky now

PEGASUS DEB

Track PEGASUS DEB now!
10-day predictions


NORAD ID: 39929
Int'l Code: 1994-029AGC
Perigee: 568.8 km
Apogee: 954.0 km
Inclination: 81.9 °
Period: 99.9 minutes
Semi major axis: 7132 km
RCS: 0.0115 m2 (small)
Launch date: May 19, 1994
Source: United States (US)
Launch site: AIR FORCE WESTERN TEST RANGE (AFWTR)

Note: This is SATELLITE DEBRIS
Your satellite tracking list
Your tracking list is empty




NASA's NSSDC Master Catalog

Two Line Element Set (TLE):
1 39929U 94029AGC 24102.10698916  .00004816  00000-0  95746-3 0  9998
2 39929  81.9481 237.0499 0270025  84.2857 278.9052 14.41286579543326
Source of the keplerian elements: AFSPC